Temp
23 22 22 23 22 22 22 21 21 21 21 21 21 20 20 19 19 19 19 19 18 18 17 17 17 17 16 16 16 16 16 16 16 16 16 16 15 15 15 15 15 14 14
22 22 21 22 22 22 21 21 21 21 21 20 20 20 19 19 19 19 19 18 18 17 17 17 17 17 16 16 16 16 16 16 16 16 16 15 15 15 15 15 15 14 14
21 21 21 21 22 21 21 21 21 20 20 20 20 20 19 19 18 18 18 18 17 17 17 16 16 16 16 16 16 16 16 16 16 16 15 15 15 15 15 15 14 15 14
21 20 21 21 21 21 20 20 20 20 19 19 19 19 19 18 18 18 18 18 17 17 17 16 16 16 16 16 16 16 16 16 16 15 15 15 15 15 15 15 14 14 14
20 21 20 21 21 21 20 20 20 19 19 19 19 19 19 18 17 17 17 17 17 16 16 16 16 16 16 16 16 16 15 15 15 15 15 15 15 16 15 15 14 14 14
19 20 20 20 20 20 19 19 19 19 19 19 18 18 18 18 17 17 17 17 17 16 16 16 16 16 15 15 15 15 15 15 14 14 15 15 15 15 15 15 14 14 14
20 19 19 19 19 19 19 19 19 19 18 18 18 18 18 17 17 17 16 16 16 16 16 16 16 15 15 15 15 15 15 14 14 14 14 14 14 15 15 15 14 14 14
19 18 18 18 19 19 19 19 19 18 18 18 18 18 18 17 17 17 16 16 16 16 16 16 16 15 15 15 15 15 14 14 14 14 14 14 14 14 15 15 14 14 14
20 18 18 18 18 18 18 19 19 19 18 18 18 18 18 17 17 17 16 16 16 16 16 16 15 15 15 15 15 15 15 15 14 14 15 14 14 14 14 14 14 14 14
19 19 18 17 17 17 17 18 18 19 19 19 19 18 18 17 17 16 16 16 16 16 15 16 15 15 15 15 15 15 15 15 15 15 15 14 13 14 14 14 14 14 14
19 18 17 17 17 17 17 17 17 17 18 19 19 19 18 17 17 16 16 16 16 16 15 15 15 15 15 15 15 15 15 14 15 15 15 14 14 14 14 14 14 14 13
18 18 18 17 16 16 17 17 16 16 16 17 18 18 18 18 17 17 16 16 16 16 16 15 15 15 15 15 15 15 14 14 14 14 14 13 14 14 14 14 13 13 13
17 17 17 17 17 16 15 15 16 17 16 17 17 18 18 18 17 16 16 16 16 15 15 15 15 15 15 14 15 14 14 13 14 14 13 12 13 14 14 13 14 13 13
16 15 16 16 16 17 16 15 14 15 16 16 16 17 17 18 18 16 15 15 15 15 15 15 15 15 14 14 14 14 14 14 14 14 14 14 13 14 14 14 13 13 13
15 14 15 15 16 15 15 16 15 15 14 16 16 16 16 17 17 17 16 15 15 15 15 15 15 15 15 14 14 13 14 14 14 15 15 13 13 13 14 14 13 13 13
14 14 13 14 14 15 15 15 15 15 15 14 15 16 16 15 16 16 16 15 15 15 16 16 15 15 15 14 13 14 14 14 14 15 15 14 14 14 14 14 14 13 13
13 13 14 13 13 14 14 14 15 15 15 14 14 15 16 16 15 16 16 15 15 15 16 16 15 15 15 14 14 14 14 14 14 15 14 14 14 14 13 13 13 13 13
14 14 13 13 13 14 14 14 15 16 16 16 15 13 15 16 16 15 16 16 15 15 15 16 16 15 15 14 14 14 14 14 14 14 14 14 14 14 13 13 13 12 12
12 12 12 12 11 11 11 12 12 14 15 16 16 15 13 14 15 16 15 16 16 15 15 16 16 15 15 14 14 14 14 14 14 14 14 14 14 14 14 13 13 12 12
11 11 10 12 12 12 11 11 10 11 12 13 14 15 15 13 14 16 15 15 15 15 15 15 15 15 15 15 14 14 14 13 13 13 13 14 13 13 13 13 12 12 11
10 9 9 8 9 9 10 9 10 10 10 11 12 14 15 14 13 14 16 15 15 16 15 15 15 15 15 14 13 13 13 13 13 13 12 13 13 13 13 13 12 12 11
7 7 7 6 6 5 6 7 6 6 7 8 10 12 14 14 14 14 14 15 15 15 16 15 15 15 14 14 13 13 12 12 12 13 13 12 13 13 12 12 12 12 11
6 5 5 5 4 3 4 4 3 2 5 7 7 9 11 13 15 14 14 14 15 14 16 15 15 15 14 14 14 13 12 13 12 12 12 12 12 12 12 12 12 12 12
5 4 4 3 2 0 -0 0 -1 -0 1 3 5 8 10 11 12 14 14 14 14 14 15 17 15 15 14 14 13 13 14 16 13 12 12 12 12 12 12 12 11 12 12
3 2 2 2 2 1 -1 -1 -1 0 1 2 3 6 9 10 12 12 13 13 13 14 14 16 15 14 15 15 15 13 14 15 15 15 13 12 11 12 12 12 12 11 12
3 2 2 2 2 0 -1 -2 -1 -0 1 2 3 3 7 9 10 12 12 13 13 11 13 15 17 15 15 15 15 15 13 14 14 15 15 14 14 14 13 12 12 12 12
Height
1516 1515 1515 1515 1515 1516 1517 1519 1520 1521 1522 1523 1524 1525 1527 1527 1529 1529 1530 1529 1529 1529 1530 1531 1532 1533 1535 1536 1537 1537 1538 1539 1539 1538 1539 1539 1539 1540 1539 1540 1540 1540 1543
1514 1514 1515 1515 1516 1517 1517 1518 1520 1521 1522 1523 1524 1525 1527 1528 1528 1529 1530 1530 1529 1530 1530 1531 1532 1533 1535 1537 1538 1538 1538 1539 1539 1538 1539 1539 1541 1542 1541 1542 1543 1543 1545
1513 1514 1514 1515 1515 1517 1517 1518 1520 1521 1522 1522 1524 1524 1526 1527 1528 1529 1529 1531 1530 1530 1530 1531 1532 1534 1535 1537 1538 1538 1539 1539 1538 1538 1539 1540 1541 1542 1542 1544 1546 1546 1548
1514 1514 1513 1513 1515 1516 1517 1518 1519 1521 1521 1522 1523 1524 1525 1527 1528 1528 1528 1530 1530 1531 1530 1531 1531 1533 1535 1536 1537 1538 1539 1539 1538 1539 1539 1541 1542 1543 1544 1546 1547 1546 1547
1513 1514 1514 1514 1514 1516 1517 1518 1519 1520 1521 1522 1523 1524 1524 1526 1527 1528 1528 1528 1529 1530 1530 1531 1532 1532 1535 1535 1537 1537 1539 1539 1539 1539 1539 1541 1542 1543 1545 1547 1548 1547 1547
1515 1516 1516 1516 1516 1516 1517 1518 1519 1519 1520 1521 1522 1523 1523 1524 1526 1527 1528 1527 1528 1529 1528 1530 1532 1533 1534 1535 1537 1538 1539 1540 1541 1542 1541 1542 1543 1543 1546 1548 1548 1548 1550
1517 1516 1516 1516 1515 1515 1516 1517 1518 1518 1519 1520 1520 1521 1522 1523 1523 1525 1526 1526 1527 1527 1528 1529 1531 1532 1534 1535 1536 1537 1539 1541 1540 1542 1541 1544 1544 1543 1545 1547 1549 1551 1552
1516 1516 1516 1515 1514 1514 1515 1516 1516 1517 1518 1518 1518 1520 1520 1522 1522 1523 1524 1525 1526 1526 1526 1527 1529 1531 1533 1535 1535 1536 1538 1539 1541 1542 1540 1544 1546 1545 1546 1547 1550 1553 1553
1517 1516 1515 1514 1513 1512 1513 1514 1515 1516 1516 1516 1517 1518 1519 1519 1521 1521 1522 1523 1525 1524 1525 1526 1528 1529 1531 1533 1534 1536 1536 1538 1540 1541 1542 1545 1546 1547 1547 1548 1551 1552 1553
1519 1518 1515 1515 1513 1513 1513 1513 1514 1514 1514 1515 1515 1516 1517 1518 1519 1520 1520 1521 1523 1523 1524 1525 1527 1527 1529 1531 1534 1535 1536 1537 1539 1539 1538 1543 1545 1547 1548 1548 1552 1553 1553
1521 1519 1518 1515 1515 1514 1514 1514 1514 1514 1513 1513 1514 1515 1515 1516 1517 1518 1518 1519 1520 1521 1522 1523 1525 1526 1527 1529 1533 1533 1534 1536 1537 1539 1540 1542 1543 1545 1546 1548 1551 1553 1554
1520 1519 1518 1517 1516 1515 1513 1513 1513 1514 1514 1513 1513 1513 1514 1514 1515 1515 1516 1516 1517 1519 1520 1521 1523 1524 1525 1527 1528 1530 1532 1534 1536 1539 1540 1543 1544 1544 1546 1548 1550 1552 1554
1522 1520 1517 1516 1516 1515 1515 1513 1513 1512 1513 1511 1511 1511 1511 1512 1512 1513 1513 1513 1514 1516 1517 1518 1520 1521 1523 1525 1526 1528 1531 1533 1535 1538 1540 1542 1545 1545 1546 1547 1550 1551 1553
1518 1514 1514 1512 1511 1511 1511 1510 1511 1510 1509 1509 1509 1508 1509 1509 1509 1509 1509 1510 1510 1513 1514 1515 1516 1518 1521 1522 1524 1526 1528 1531 1533 1535 1534 1537 1544 1544 1545 1547 1549 1550 1551
1515 1515 1514 1513 1510 1509 1508 1507 1507 1505 1507 1506 1505 1505 1505 1506 1506 1506 1506 1506 1507 1508 1509 1511 1513 1514 1516 1519 1520 1523 1526 1529 1530 1532 1534 1538 1541 1543 1544 1545 1546 1548 1550
1517 1515 1514 1512 1511 1510 1507 1505 1503 1502 1501 1501 1502 1501 1501 1502 1503 1503 1503 1503 1503 1504 1504 1507 1509 1511 1513 1515 1518 1519 1523 1524 1528 1530 1533 1535 1537 1537 1541 1542 1543 1545 1547
1516 1514 1512 1509 1507 1506 1505 1502 1498 1498 1497 1494 1495 1497 1495 1497 1497 1498 1499 1500 1500 1501 1502 1502 1505 1508 1510 1511 1514 1517 1519 1521 1525 1526 1528 1531 1533 1534 1537 1539 1541 1543 1545
1514 1512 1510 1507 1504 1500 1497 1494 1493 1491 1489 1488 1488 1488 1490 1489 1492 1493 1494 1494 1496 1497 1497 1497 1499 1503 1507 1509 1510 1514 1516 1518 1522 1524 1525 1528 1530 1531 1534 1536 1539 1540 1542
1512 1509 1505 1502 1496 1491 1487 1484 1481 1481 1480 1480 1480 1481 1480 1481 1482 1486 1487 1487 1488 1490 1490 1490 1492 1494 1500 1504 1507 1510 1513 1516 1517 1520 1523 1524 1527 1529 1531 1533 1536 1538 1539
1508 1505 1500 1496 1492 1486 1480 1474 1470 1465 1466 1468 1467 1468 1471 1471 1473 1475 1478 1479 1481 1483 1486 1486 1488 1488 1489 1495 1502 1506 1509 1511 1513 1515 1518 1520 1522 1525 1528 1530 1533 1535 1537
1504 1499 1494 1489 1484 1481 1474 1466 1460 1455 1450 1451 1454 1456 1457 1460 1461 1462 1465 1467 1472 1471 1476 1478 1480 1483 1487 1488 1493 1501 1504 1507 1508 1511 1513 1516 1518 1521 1524 1526 1528 1530 1532
1501 1496 1490 1485 1480 1475 1470 1462 1455 1447 1441 1436 1438 1441 1445 1448 1450 1451 1452 1455 1460 1464 1466 1471 1472 1476 1479 1482 1483 1489 1497 1502 1503 1506 1508 1510 1513 1516 1519 1521 1523 1525 1527
1499 1492 1487 1481 1477 1471 1463 1455 1447 1440 1433 1429 1426 1428 1432 1434 1437 1439 1442 1447 1453 1458 1457 1460 1462 1465 1469 1474 1474 1477 1486 1490 1494 1498 1501 1505 1507 1510 1513 1515 1517 1520 1522
1497 1490 1484 1479 1473 1464 1456 1448 1442 1435 1425 1421 1417 1415 1417 1420 1422 1427 1430 1437 1443 1447 1448 1449 1456 1456 1462 1465 1468 1471 1472 1477 1484 1488 1494 1498 1501 1503 1506 1509 1510 1514 1516
1494 1487 1481 1473 1467 1458 1449 1443 1436 1428 1420 1412 1408 1403 1402 1408 1411 1415 1419 1424 1429 1431 1439 1441 1445 1452 1451 1456 1457 1462 1468 1471 1476 1476 1481 1487 1493 1495 1498 1501 1504 1507 1509
1490 1484 1475 1468 1461 1452 1443 1437 1430 1421 1413 1405 1399 1394 1390 1394 1400 1404 1409 1410 1410 1412 1432 1430 1432 1442 1444 1449 1450 1454 1460 1462 1467 1470 1473 1479 1482 1486 1490 1493 1497 1500 1503
Wind_Speed
16 12 3 5 7 7 6 6 5 6 6 4 3 3 4 5 4 3 1 1 1 2 5 7 8 11 12 7 3 2 3 5 4 1 4 9 12 12 15 17 18 21 19
15 9 5 5 7 6 6 6 5 5 4 3 2 2 3 5 5 4 2 1 1 2 4 5 7 9 10 8 6 4 4 3 3 6 8 15 13 12 10 12 16 21 21
14 3 4 6 8 6 6 6 5 4 3 3 2 2 4 5 6 5 3 2 3 3 4 5 6 8 9 8 6 5 4 3 4 6 11 9 10 11 14 16 16 15 14
14 3 10 8 9 7 6 6 5 5 4 3 3 3 4 6 7 6 4 3 3 3 4 5 6 6 7 6 5 5 5 6 10 8 4 8 13 13 11 12 16 18 16
6 7 10 6 7 6 6 6 5 4 4 3 4 5 5 7 7 6 5 4 5 4 5 6 6 6 6 6 6 7 6 9 7 7 9 13 10 13 13 13 17 18 17
7 5 9 5 4 6 6 6 5 5 5 5 5 6 6 7 8 7 6 5 6 6 6 6 6 5 6 6 7 8 7 14 13 7 9 7 14 15 14 16 17 18 17
3 6 8 8 7 7 8 7 7 7 6 6 6 7 8 9 10 8 7 7 7 7 8 7 6 6 6 7 8 8 12 15 11 10 10 6 12 15 17 16 17 15 14
8 8 10 10 9 9 10 9 9 9 8 7 7 8 10 11 11 10 9 8 9 7 9 9 8 7 7 8 8 9 14 17 12 9 7 9 12 16 17 16 16 14 12
18 15 15 14 10 8 11 10 11 10 10 9 9 10 12 13 13 11 11 10 11 9 10 10 9 8 8 9 9 10 14 14 14 8 10 13 14 16 17 17 16 13 10
20 19 17 12 11 7 10 11 12 12 11 11 11 12 13 14 14 14 14 13 13 12 12 11 10 9 10 10 9 11 11 9 8 7 17 17 16 17 17 16 14 11 9
17 21 11 14 12 13 10 11 13 14 14 13 14 14 15 16 16 16 15 15 15 14 13 13 11 11 11 12 12 13 10 12 8 13 12 15 17 16 17 16 13 10 9
15 13 15 9 12 14 16 18 14 13 16 16 16 16 17 18 18 17 17 17 17 16 15 15 14 13 13 13 14 15 13 15 11 11 11 13 18 19 18 16 13 10 9
17 17 19 15 10 9 14 16 18 20 19 21 20 19 20 21 20 19 16 18 18 18 17 18 17 16 15 15 16 16 15 17 14 10 17 15 22 20 18 16 12 11 9
19 13 10 11 11 9 7 7 17 21 23 21 21 23 23 24 23 23 20 18 18 18 19 19 19 17 16 17 16 16 18 16 11 15 15 17 20 17 16 15 14 12 10
13 12 12 12 15 15 14 10 8 12 22 26 24 23 24 26 26 26 25 22 22 16 19 21 18 15 17 19 18 15 20 18 13 13 21 22 20 17 15 15 15 13 11
15 18 20 20 20 22 25 24 21 18 16 21 28 30 29 29 29 29 28 24 22 20 15 14 17 13 13 20 20 20 16 18 14 15 15 18 18 18 16 15 14 14 13
25 28 26 27 28 30 32 34 33 31 26 19 25 34 35 34 33 33 30 30 26 25 19 15 16 16 16 19 21 19 19 20 16 15 16 20 19 19 18 17 16 15 14
28 31 31 32 33 34 37 38 37 37 37 35 26 29 38 40 39 37 34 35 32 29 24 22 21 21 21 19 22 22 20 18 17 18 19 18 16 20 19 19 17 16 15
29 31 32 34 37 40 41 43 42 37 37 40 42 36 34 43 44 41 41 38 34 35 32 30 29 28 24 23 23 23 20 18 17 19 20 20 20 21 21 19 16 18 19
29 33 37 37 37 40 44 45 47 48 41 40 43 47 42 40 48 45 46 44 39 39 38 35 35 32 30 26 24 21 20 19 16 16 19 19 21 22 22 22 19 20 22
32 38 40 44 43 43 44 47 48 48 49 43 47 46 47 42 44 50 47 53 47 45 44 42 39 37 32 30 29 24 25 24 21 21 19 21 20 20 24 24 22 22 23
37 42 43 44 45 46 44 46 47 48 46 49 42 49 47 46 47 50 56 56 56 52 47 47 46 41 37 37 36 33 26 23 24 23 24 25 23 20 20 24 26 24 24
38 44 43 44 45 45 44 43 42 44 45 43 43 47 46 46 53 51 53 55 60 58 53 54 52 47 46 43 43 31 17 15 29 30 26 28 28 26 25 23 22 24 25
39 42 42 42 43 45 41 39 38 41 47 46 45 43 51 43 43 52 58 55 57 61 60 58 56 51 48 49 47 44 27 16 17 16 33 30 29 29 29 26 25 22 24
39 44 41 41 44 45 40 35 37 40 44 49 48 47 45 52 46 47 53 56 59 60 64 62 60 55 50 50 53 49 36 21 19 22 22 32 32 29 29 26 25 24 23
39 41 39 41 43 43 38 35 35 37 39 43 45 48 49 50 51 44 51 48 60 50 61 65 61 59 53 51 50 47 47 37 31 25 22 27 25 23 24 25 25 26 24
Wind_Direction
338 326 287 229 187 165 153 147 146 147 140 141 165 177 193 197 215 204 256 299 243 171 172 167 165 179 188 185 203 201 239 231 219 138 125 134 118 122 127 127 126 121 120
327 309 245 233 218 190 160 150 151 151 146 146 178 201 209 209 211 210 258 279 230 195 181 172 170 175 189 200 219 224 205 174 128 130 141 127 124 134 131 132 126 124 125
331 294 286 250 222 214 164 155 161 161 161 158 199 221 232 225 213 208 238 253 223 212 194 191 189 192 196 208 210 196 160 133 134 143 136 126 135 128 134 133 133 134 126
332 313 320 246 212 210 170 165 171 178 182 191 219 228 237 234 220 216 218 240 238 241 196 207 201 204 199 195 190 165 142 138 140 142 177 163 146 138 130 150 141 134 132
348 344 342 200 199 202 183 180 184 191 195 209 229 238 235 236 223 225 228 231 233 228 211 214 211 206 208 199 183 164 145 153 158 162 120 151 163 140 148 159 155 142 136
45 343 319 322 232 216 200 197 201 208 208 213 222 232 231 228 223 235 243 240 235 224 218 217 216 204 212 199 182 166 158 162 168 165 151 175 161 147 157 160 149 145 148
337 359 330 308 286 251 225 215 219 223 219 217 219 216 216 219 215 235 244 242 239 228 222 219 212 204 209 196 185 172 170 172 173 180 158 180 165 157 158 158 152 155 157
339 326 319 306 302 248 234 233 233 235 233 226 221 218 211 217 223 229 237 245 244 232 227 218 216 212 214 204 190 183 178 186 182 190 156 173 176 166 163 155 155 156 155
24 3 343 314 315 247 222 236 246 246 244 234 229 223 219 218 225 227 233 239 248 238 232 221 216 211 205 207 193 182 196 198 203 238 240 196 188 172 166 159 161 164 159
28 17 351 348 335 332 249 240 247 253 252 248 239 230 225 225 225 229 230 237 243 240 236 229 222 213 204 198 192 179 201 203 211 207 174 189 180 175 171 163 169 172 169
37 38 2 336 342 323 320 286 260 257 254 249 248 241 233 228 227 229 233 237 240 238 237 235 228 224 210 199 192 181 191 197 197 172 183 196 187 186 175 171 177 181 176
14 14 26 31 320 317 316 314 297 286 269 256 250 248 242 234 233 232 236 240 239 238 235 236 231 227 219 207 197 199 191 191 195 169 185 202 198 186 181 180 184 183 182
7 358 355 0 25 12 313 304 308 305 304 264 250 246 246 240 237 233 233 232 236 236 237 236 235 231 224 214 207 202 201 193 201 222 204 204 199 187 184 185 192 191 192
42 41 9 345 334 327 349 331 292 297 301 299 262 252 245 243 237 233 234 236 241 245 242 238 235 236 238 222 208 202 195 195 187 203 185 191 197 193 189 194 197 196 197
27 15 3 333 319 323 321 301 302 281 281 289 284 269 257 247 239 231 228 229 235 240 249 237 235 240 232 216 203 191 196 197 189 153 173 176 186 194 198 199 198 201 204
355 351 343 334 329 313 306 304 300 287 275 272 263 269 264 256 245 232 229 231 228 238 230 225 223 224 225 211 205 198 196 201 194 186 190 186 189 193 204 201 200 204 206
345 335 327 326 318 312 305 297 291 287 280 275 269 258 263 257 247 238 227 225 228 233 224 220 223 223 233 215 210 207 198 200 195 197 186 178 191 199 210 203 202 205 206
328 328 326 320 314 307 303 302 291 283 277 267 266 270 254 260 254 240 231 225 226 228 226 216 220 223 228 222 213 207 203 201 199 198 196 207 210 201 207 206 210 213 209
330 329 332 335 333 326 316 309 301 287 273 268 261 263 266 250 256 246 234 227 221 222 224 216 219 213 218 222 217 209 217 208 211 204 201 209 211 208 207 204 218 224 219
332 333 333 330 328 325 319 312 306 299 285 264 258 256 255 259 246 251 238 229 223 220 222 220 217 209 210 218 208 203 204 213 215 209 214 217 214 216 217 222 229 228 224
339 339 336 333 331 328 322 315 306 296 291 279 254 251 248 260 253 245 243 227 224 219 218 220 218 216 213 210 193 201 205 207 215 209 207 211 214 219 226 230 238 236 232
340 340 336 334 331 330 324 314 305 299 292 286 272 247 247 245 255 248 242 232 221 221 214 216 218 214 213 207 195 194 185 199 212 216 212 214 214 222 233 232 237 237 232
338 338 336 334 329 329 325 315 307 304 298 289 280 263 249 248 245 254 246 237 225 221 217 215 217 215 207 207 206 186 175 205 208 220 213 212 217 222 226 239 235 235 236
333 336 335 333 333 332 329 322 315 308 302 298 290 274 257 248 246 256 251 243 229 222 220 216 218 214 211 203 203 208 205 209 182 197 217 217 219 226 230 238 238 234 238
334 336 337 337 337 333 334 328 317 306 301 296 290 281 266 248 242 249 253 249 240 224 219 217 216 217 212 208 206 206 205 205 204 180 189 207 220 227 233 237 250 244 243
337 337 340 341 339 340 340 330 320 310 303 300 292 286 276 261 251 246 252 250 246 233 221 216 216 218 214 212 211 210 207 199 191 190 192 199 204 209 216 222 232 241 242